Regional Weather Roundup
Issued by NWS

Home | Current Version | Previous Version | Text Only | Print | Product List | Glossary On
Versions: 1 2 3 4 5 6 7 8 9 10 11 12 13 14 15 16 17 18 19 20 21 22 23 24 25 26 27 28 29 30 31 32 33 34 35 36 37 38 39 40 41 42 43 44 45 46 47 48 49 50
000
ASUS44 KOUN 241000
RWROK

WEATHER ROUNDUP FOR OKLAHOMA
NATIONAL WEATHER SERVICE NORMAN OK
500 AM CDT TUE OCT 24 2017

NOTE: "FAIR" INDICATES FEW OR NO CLOUDS BELOW 12,000 FEET WITH NO
      SIGNIFICANT WEATHER AND/OR OBSTRUCTIONS TO VISIBILITY.

OKZ001>007-009>012-014-015-017-241100-
NORTHWEST OKLAHOMA AND THE PANHANDLE

CITY           SKY/WX    TMP DP  RH WIND       PRES   REMARKS
GAGE           CLEAR     44  24  45 NW9       30.39F
GUYMON         CLOUDY    39  26  59 W9        30.47S WCI  33
$$

OKZ016-021>023-033>039-044-045-241100-
SOUTHWEST OKLAHOMA

CITY           SKY/WX    TMP DP  RH WIND       PRES   REMARKS
LAWTON/REGL    CLEAR     49  36  61 NW3       30.34S
LAWTON/FT SILL CLEAR     50  34  55 NW7       30.33S
FREDERICK      CLOUDY    50  35  56 NW9       30.34R
CLINTON        CLEAR     47  24  40 NW14      30.38S
HOBART         CLEAR     41  31  67 W7        30.37S
ALTUS AFB      CLOUDY    48  26  42 NW7       30.37R
$$

OKZ018>020-024>031-241100-
CENTRAL OKLAHOMA

CITY           SKY/WX    TMP DP  RH WIND       PRES   REMARKS
OKLAHOMA CITY  PTCLDY    46  32  58 NW9       30.30S
OKC/WILEY POST CLEAR     47  34  60 W8        30.30S
OKC/TINKER AFB CLEAR     48  33  56 W8        30.28S
STILLWATER     CLEAR     47  31  53 NW8       30.25F
GUTHRIE        CLEAR     44  35  70 W3        30.28F
$$

OKZ008-013-054>072-241100-
NORTHEAST OKLAHOMA

CITY           SKY/WX    TMP DP  RH WIND       PRES   REMARKS
TULSA          CLEAR     50  33  52 W12       30.19S
TULSA/JONES    CLEAR     50  35  56 VRB5      30.21S
PONCA CITY     CLEAR     47  32  56 W8        30.25R
BARTLESVILLE   CLEAR     52  30  43 W8        30.20F
MUSKOGEE       CLEAR     48  35  60 W10       30.20S
$$

OKZ032-040>043-046>053-073>077-241100-
SOUTH CENTRAL/SOUTHEAST OKLAHOMA

CITY           SKY/WX    TMP DP  RH WIND       PRES   REMARKS
MCALESTER      PTCLDY    49  36  61 W5        30.24S
$$




USA.gov is the U.S. government's official web portal to all federal, state and local government web resources and services.